Hourly Weather Escaldes-Engordany

Today, 18 September, Friday

Time Temperature Precipitation Wind Pressure Humidity
00:00 +13°C° 0 mm 2 mps 639 mmHg 81%
01:00 +13°C° 0 mm 2 mps 639 mmHg 81%
02:00 +13°C° 0 mm 2 mps 638 mmHg 81%
03:00 +13°C° 0 mm 2 mps 638 mmHg 81%
04:00 +13°C° 0 mm 2 mps 638 mmHg 80%
05:00 +13°C° 0 mm 2 mps 639 mmHg 79%
06:00 +14°C° 0 mm 2 mps 639 mmHg 77%
07:00 +15°C° 0 mm 2 mps 639 mmHg 75%
08:00 +15°C° 0 mm 2 mps 640 mmHg 72%
09:00 +16°C° 0 mm 2 mps 640 mmHg 70%
10:00 +16°C° 0.1 mm 2 mps 640 mmHg 73%
11:00 +15°C° 0.1 mm 2 mps 640 mmHg 77%
12:00 +15°C° 0.1 mm 2 mps 639 mmHg 81%
13:00 +15°C° 0.2 mm 2 mps 639 mmHg 82%
14:00 +15°C° 0.2 mm 2 mps 639 mmHg 82%
15:00 +16°C° 0.2 mm 2 mps 639 mmHg 83%
16:00 +15°C° 1 mm 2 mps 639 mmHg 86%
17:00 +14°C° 1 mm 2 mps 639 mmHg 89%
18:00 +14°C° 1 mm 2 mps 638 mmHg 92%
19:00 +14°C° 1.6 mm 2 mps 639 mmHg 92%
20:00 +13°C° 1.6 mm 2 mps 639 mmHg 93%
21:00 +13°C° 1.6 mm 2 mps 639 mmHg 93%
22:00 +13°C° 0.2 mm 2 mps 638 mmHg 93%
23:00 +13°C° 0.2 mm 2 mps 638 mmHg 93%

Tomorrow, 19 September, Saturday

Time Temperature Precipitation Wind Pressure Humidity
00:00 +12°C° 0.2 mm 2 mps 638 mmHg 92%
01:00 +12°C° 0.3 mm 2 mps 638 mmHg 93%
02:00 +12°C° 0.3 mm 2 mps 637 mmHg 94%
03:00 +12°C° 0.3 mm 2 mps 637 mmHg 95%
04:00 +12°C° 0.2 mm 2 mps 637 mmHg 95%
05:00 +12°C° 0.2 mm 1 mps 637 mmHg 95%
06:00 +11°C° 0.2 mm 1 mps 637 mmHg 95%
07:00 +13°C° 0 mm 2 mps 638 mmHg 89%
08:00 +14°C° 0 mm 2 mps 638 mmHg 82%
09:00 +16°C° 0 mm 2 mps 639 mmHg 75%
10:00 +17°C° 0.1 mm 2 mps 639 mmHg 68%
11:00 +18°C° 0.1 mm 3 mps 639 mmHg 60%
12:00 +19°C° 0.1 mm 3 mps 639 mmHg 53%
13:00 +18°C° 0 mm 3 mps 639 mmHg 53%
14:00 +18°C° 0 mm 3 mps 638 mmHg 53%
15:00 +18°C° 0 mm 3 mps 638 mmHg 53%
16:00 +16°C° 0 mm 2 mps 638 mmHg 63%
17:00 +15°C° 0 mm 2 mps 637 mmHg 73%
18:00 +13°C° 0 mm 1 mps 637 mmHg 83%
19:00 +12°C° 0.1 mm 1 mps 637 mmHg 86%
20:00 +12°C° 0.1 mm 1 mps 637 mmHg 88%
21:00 +11°C° 0.1 mm 1 mps 637 mmHg 91%
22:00 +11°C° 0 mm 1 mps 637 mmHg 91%
23:00 +11°C° 0 mm 1 mps 638 mmHg 91%

Day after tomorrow, 20 September, Sunday

Time Temperature Precipitation Wind Pressure Humidity
00:00 +11°C° 0 mm 1 mps 638 mmHg 91%
01:00 +11°C° 0 mm 1 mps 637 mmHg 90%
02:00 +10°C° 0 mm 1 mps 637 mmHg 90%
03:00 +10°C° 0 mm 1 mps 637 mmHg 90%
04:00 +10°C° 0 mm 1 mps 637 mmHg 90%
05:00 +10°C° 0 mm 1 mps 637 mmHg 90%
06:00 +10°C° 0 mm 1 mps 638 mmHg 90%
07:00 +12°C° 0 mm 1 mps 639 mmHg 81%
08:00 +15°C° 0 mm 1 mps 640 mmHg 73%
09:00 +16°C° 0 mm 0 mps 641 mmHg 65%
10:00 +18°C° 0.4 mm 1 mps 640 mmHg 66%
11:00 +18°C° 0.4 mm 1 mps 640 mmHg 68%
12:00 +18°C° 0.4 mm 1 mps 640 mmHg 69%
13:00 +18°C° 0.9 mm 1 mps 640 mmHg 72%
14:00 +18°C° 0.9 mm 1 mps 639 mmHg 75%
15:00 +16°C° 0.9 mm 1 mps 639 mmHg 78%
16:00 +15°C° 0.7 mm 1 mps 639 mmHg 82%
17:00 +13°C° 0.7 mm 0 mps 638 mmHg 86%
18:00 +12°C° 0.7 mm 0 mps 638 mmHg 89%
19:00 +13°C° 0.1 mm 1 mps 638 mmHg 90%
20:00 +12°C° 0.1 mm 1 mps 639 mmHg 91%
21:00 +12°C° 0.1 mm 1 mps 639 mmHg 91%
22:00 +12°C° 0 mm 1 mps 639 mmHg 91%
23:00 +11°C° 0 mm 1 mps 638 mmHg 91%

21 September, Monday

Time Temperature Precipitation Wind Pressure Humidity
00:00 +11°C° 0 mm 1 mps 638 mmHg 91%
01:00 +11°C° 0 mm 1 mps 638 mmHg 91%
02:00 +11°C° 0 mm 1 mps 638 mmHg 90%
03:00 +10°C° 0 mm 1 mps 638 mmHg 90%
04:00 +10°C° 0 mm 1 mps 638 mmHg 90%
05:00 +10°C° 0 mm 1 mps 638 mmHg 90%
06:00 +10°C° 0 mm 1 mps 638 mmHg 90%
07:00 +12°C° 0 mm 1 mps 639 mmHg 83%
08:00 +15°C° 0 mm 1 mps 640 mmHg 75%
09:00 +18°C° 0 mm 1 mps 641 mmHg 68%
10:00 +18°C° 0.6 mm 1 mps 640 mmHg 68%
11:00 +19°C° 0.6 mm 1 mps 640 mmHg 67%
12:00 +18°C° 0.6 mm 2 mps 640 mmHg 67%
13:00 +18°C° 1.7 mm 1 mps 640 mmHg 71%
14:00 +18°C° 1.7 mm 1 mps 639 mmHg 75%
15:00 +16°C° 1.7 mm 1 mps 639 mmHg 79%
16:00 +15°C° 1 mm 1 mps 638 mmHg 82%
17:00 +14°C° 1 mm 1 mps 638 mmHg 85%
18:00 +11°C° 1 mm 0 mps 637 mmHg 88%
19:00 +12°C° 0.2 mm 1 mps 637 mmHg 89%
20:00 +12°C° 0.2 mm 1 mps 638 mmHg 89%
21:00 +11°C° 0.2 mm 1 mps 638 mmHg 89%
22:00 +11°C° 0.2 mm 1 mps 637 mmHg 89%
23:00 +11°C° 0.2 mm 1 mps 637 mmHg 90%

22 September, Tuesday

Time Temperature Precipitation Wind Pressure Humidity
00:00 +11°C° 0.2 mm 1 mps 637 mmHg 90%
01:00 +11°C° 0.1 mm 1 mps 637 mmHg 90%
02:00 +11°C° 0.1 mm 1 mps 637 mmHg 89%
03:00 +10°C° 0.1 mm 1 mps 636 mmHg 89%
04:00 +11°C° 0 mm 1 mps 636 mmHg 88%
05:00 +11°C° 0 mm 1 mps 637 mmHg 87%
06:00 +11°C° 0 mm 1 mps 637 mmHg 86%
07:00 +13°C° 0.1 mm 1 mps 638 mmHg 81%
08:00 +14°C° 0.1 mm 1 mps 638 mmHg 75%
09:00 +16°C° 0.1 mm 1 mps 639 mmHg 70%
10:00 +16°C° 0.8 mm 1 mps 639 mmHg 71%
11:00 +18°C° 0.8 mm 1 mps 639 mmHg 72%
12:00 +18°C° 0.8 mm 1 mps 639 mmHg 73%
13:00 +18°C° 1 mm 1 mps 639 mmHg 72%
14:00 +18°C° 1 mm 1 mps 638 mmHg 72%
15:00 +18°C° 1 mm 1 mps 638 mmHg 71%
16:00 +15°C° 0.6 mm 1 mps 638 mmHg 76%
17:00 +14°C° 0.6 mm 1 mps 637 mmHg 82%
18:00 +12°C° 0.6 mm 1 mps 637 mmHg 87%
19:00 +12°C° 0.2 mm 1 mps 637 mmHg 88%
20:00 +11°C° 0.2 mm 1 mps 637 mmHg 88%
21:00 +11°C° 0.2 mm 1 mps 637 mmHg 89%
22:00 +10°C° 0 mm 1 mps 637 mmHg 89%
23:00 +10°C° 0 mm 1 mps 637 mmHg 90%

23 September, Wednesday

Time Temperature Precipitation Wind Pressure Humidity
00:00 +10°C° 0 mm 1 mps 637 mmHg 90%
01:00 +10°C° 0 mm 1 mps 637 mmHg 90%
02:00 +10°C° 0 mm 1 mps 636 mmHg 91%
03:00 +9°C° 0 mm 1 mps 636 mmHg 91%
04:00 +9°C° 0 mm 1 mps 636 mmHg 91%
05:00 +9°C° 0 mm 1 mps 636 mmHg 91%
06:00 +9°C° 0 mm 1 mps 636 mmHg 90%
07:00 +11°C° 0 mm 1 mps 637 mmHg 85%
08:00 +13°C° 0 mm 1 mps 638 mmHg 79%
09:00 +16°C° 0 mm 1 mps 639 mmHg 73%
10:00 +16°C° 0.4 mm 1 mps 639 mmHg 72%
11:00 +16°C° 0.4 mm 1 mps 639 mmHg 70%
12:00 +17°C° 0.4 mm 2 mps 638 mmHg 69%
13:00 +17°C° 0.6 mm 2 mps 638 mmHg 71%
14:00 +16°C° 0.6 mm 2 mps 637 mmHg 74%
15:00 +16°C° 0.6 mm 2 mps 637 mmHg 76%
16:00 +15°C° 0.4 mm 1 mps 637 mmHg 81%
17:00 +13°C° 0.4 mm 1 mps 636 mmHg 86%
18:00 +11°C° 0.4 mm 0 mps 636 mmHg 91%
19:00 +11°C° 0.1 mm 0 mps 636 mmHg 91%
20:00 +10°C° 0.1 mm 0 mps 636 mmHg 90%
21:00 +10°C° 0.1 mm 0 mps 636 mmHg 90%
22:00 +11°C° 0 mm 1 mps 635 mmHg 91%
23:00 +10°C° 0 mm 1 mps 635 mmHg 92%
Show more